Time,TemperatureF,DewpointF,PressureIn,WindDirection,WindDirectionDegrees,WindSpeedMPH,WindSpeedGustMPH,Humidity,HourlyPrecipIn,Conditions,Clouds,dailyrainin,SoftwareType,DateUTC
2013-09-30 00:02:00,63.3,0.0,29.99,West,270,0.0,1.1,0,0.00,,,0.00,WUHU21623XXSP,2013-09-30 07:02:00,
2013-09-30 00:07:00,63.5,0.0,29.98,WSW,247,0.0,0.0,0,0.00,,,0.00,WUHU21623XXSP,2013-09-30 07:07:00,
2013-09-30 00:12:00,63.3,0.0,29.99,West,270,0.0,0.0,0,0.00,,,0.00,WUHU21623XXSP,2013-09-30 07:12:00,
2013-09-30 00:17:00,63.5,0.0,29.99,WSW,247,0.0,1.1,0,0.00,,,0.00,WUHU21623XXSP,2013-09-30 07:17:00,
2013-09-30 00:22:00,63.3,0.0,29.98,South,180,0.0,1.1,0,0.00,,,0.00,WUHU21623XXSP,2013-09-30 07:22:00,
2013-09-30 00:27:00,63.3,0.0,29.98,SW,225,1.6,1.6,0,0.00,,,0.00,WUHU21623XXSP,2013-09-30 07:27:00,
2013-09-30 00:32:00,63.3,0.0,29.98,South,180,0.0,1.6,0,0.00,,,0.00,WUHU21623XXSP,2013-09-30 07:32:00,
2013-09-30 00:37:00,63.3,0.0,29.98,South,180,0.0,0.0,0,0.00,,,0.00,WUHU21623XXSP,2013-09-30 07:37:00,
2013-09-30 00:42:00,63.3,0.0,29.98,SSE,157,0.0,0.0,0,0.00,,,0.00,WUHU21623XXSP,2013-09-30 07:42:00,
2013-09-30 00:47:00,63.3,0.0,29.98,West,270,0.0,0.0,0,0.00,,,0.00,WUHU21623XXSP,2013-09-30 07:47:00,
2013-09-30 00:52:00,63.3,0.0,29.98,WSW,247,0.0,0.0,0,0.00,,,0.00,WUHU21623XXSP,2013-09-30 07:52:00,
2013-09-30 00:57:00,63.3,0.0,29.98,West,270,0.0,0.0,0,0.00,,,0.00,WUHU21623XXSP,2013-09-30 07:57:00,
2013-09-30 01:02:00,63.3,0.0,29.98,WNW,292,0.0,0.0,0,0.00,,,0.00,WUHU21623XXSP,2013-09-30 08:02:00,
2013-09-30 01:15:00,63.1,0.0,29.98,SSE,157,0.0,0.0,0,0.00,,,0.00,WUHU21623XXSP,2013-09-30 08:15:00,
2013-09-30 01:20:00,63.3,0.0,29.98,WSW,247,0.0,0.0,0,0.00,,,0.00,WUHU21623XXSP,2013-09-30 08:20:00,
2013-09-30 01:25:00,63.1,0.0,29.98,NW,315,0.0,0.0,0,0.00,,,0.00,WUHU21623XXSP,2013-09-30 08:25:00,
2013-09-30 01:30:00,63.3,0.0,29.98,WNW,292,0.0,0.0,0,0.00,,,0.00,WUHU21623XXSP,2013-09-30 08:30:00,
2013-09-30 01:35:00,63.1,0.0,29.98,SW,225,0.0,0.0,0,0.00,,,0.00,WUHU21623XXSP,2013-09-30 08:35:00,
2013-09-30 01:40:00,63.1,0.0,29.98,South,180,0.0,0.0,0,0.00,,,0.00,WUHU21623XXSP,2013-09-30 08:40:00,
2013-09-30 01:45:00,63.3,0.0,29.98,SSE,157,1.1,1.1,0,0.00,,,0.00,WUHU21623XXSP,2013-09-30 08:45:00,
2013-09-30 01:50:00,63.1,0.0,29.97,SSE,157,0.0,1.1,0,0.00,,,0.00,WUHU21623XXSP,2013-09-30 08:50:00,
2013-09-30 01:55:00,63.1,0.0,29.98,SSE,157,0.0,0.0,0,0.00,,,0.00,WUHU21623XXSP,2013-09-30 08:55:00,
2013-09-30 02:00:00,63.1,0.0,29.98,South,180,0.0,0.0,0,0.00,,,0.00,WUHU21623XXSP,2013-09-30 09:00:00,
2013-09-30 02:05:00,63.1,0.0,29.98,SW,225,0.0,0.0,0,0.00,,,0.00,WUHU21623XXSP,2013-09-30 09:05:00,
2013-09-30 02:10:00,63.1,0.0,29.98,WNW,292,0.0,0.0,0,0.00,,,0.00,WUHU21623XXSP,2013-09-30 09:10:00,
2013-09-30 02:15:00,63.1,0.0,29.98,SW,225,0.0,0.0,0,0.00,,,0.00,WUHU21623XXSP,2013-09-30 09:15:00,
2013-09-30 02:20:00,63.1,0.0,29.98,WNW,292,0.0,0.0,0,0.00,,,0.00,WUHU21623XXSP,2013-09-30 09:20:00,
2013-09-30 02:25:00,63.1,0.0,29.97,West,270,0.0,0.0,0,0.00,,,0.00,WUHU21623XXSP,2013-09-30 09:25:00,
2013-09-30 02:30:00,63.1,0.0,29.98,WSW,247,0.0,0.0,0,0.00,,,0.00,WUHU21623XXSP,2013-09-30 09:30:00,
2013-09-30 02:35:00,63.1,0.0,29.98,WNW,292,0.0,0.0,0,0.00,,,0.00,WUHU21623XXSP,2013-09-30 09:35:00,
2013-09-30 02:40:00,63.1,0.0,29.98,SSW,202,0.9,0.9,0,0.00,,,0.00,WUHU21623XXSP,2013-09-30 09:40:00,
2013-09-30 02:45:00,63.3,0.0,29.97,West,270,0.0,2.0,0,0.00,,,0.00,WUHU21623XXSP,2013-09-30 09:45:00,
2013-09-30 02:50:00,63.3,0.0,29.97,West,270,0.0,2.0,0,0.00,,,0.00,WUHU21623XXSP,2013-09-30 09:50:00,
2013-09-30 02:55:00,63.1,0.0,29.97,WSW,247,0.0,0.9,0,0.00,,,0.00,WUHU21623XXSP,2013-09-30 09:55:00,
2013-09-30 03:00:00,63.1,0.0,29.97,SW,225,0.0,0.9,0,0.00,,,0.00,WUHU21623XXSP,2013-09-30 10:00:00,
2013-09-30 03:05:00,63.1,0.0,29.97,WSW,247,0.0,0.9,0,0.00,,,0.00,WUHU21623XXSP,2013-09-30 10:05:00,
2013-09-30 03:10:00,63.1,0.0,29.97,SW,225,0.9,0.9,0,0.00,,,0.00,WUHU21623XXSP,2013-09-30 10:10:00,
2013-09-30 03:15:00,63.1,0.0,29.97,West,270,0.0,0.9,0,0.00,,,0.00,WUHU21623XXSP,2013-09-30 10:15:00,
2013-09-30 03:20:00,63.1,0.0,29.97,SW,225,0.0,0.0,0,0.00,,,0.00,WUHU21623XXSP,2013-09-30 10:20:00,
2013-09-30 03:25:00,63.1,0.0,29.97,WSW,247,0.7,0.7,0,0.00,,,0.00,WUHU21623XXSP,2013-09-30 10:25:00,
2013-09-30 03:30:00,63.1,0.0,29.97,South,180,0.0,0.7,0,0.00,,,0.00,WUHU21623XXSP,2013-09-30 10:30:00,
2013-09-30 03:35:00,63.1,0.0,29.97,SE,135,0.7,0.7,0,0.00,,,0.00,WUHU21623XXSP,2013-09-30 10:35:00,
2013-09-30 03:40:00,63.1,0.0,29.98,South,180,1.1,1.1,0,0.00,,,0.00,WUHU21623XXSP,2013-09-30 10:40:00,
2013-09-30 03:45:00,63.1,0.0,29.97,SSE,157,4.5,4.5,0,0.00,,,0.00,WUHU21623XXSP,2013-09-30 10:45:00,
2013-09-30 03:50:00,63.1,0.0,29.96,SW,225,1.1,4.5,0,0.00,,,0.00,WUHU21623XXSP,2013-09-30 10:50:00,
2013-09-30 03:55:00,63.1,0.0,29.96,SW,225,0.0,2.0,0,0.00,,,0.00,WUHU21623XXSP,2013-09-30 10:55:00,
2013-09-30 04:00:00,63.0,0.0,29.96,West,270,0.0,0.0,0,0.00,,,0.00,WUHU21623XXSP,2013-09-30 11:00:00,
2013-09-30 04:05:00,63.0,0.0,29.96,SSW,202,0.0,0.0,0,0.00,,,0.00,WUHU21623XXSP,2013-09-30 11:05:00,
2013-09-30 04:10:00,63.0,0.0,29.96,South,180,0.0,0.0,0,0.00,,,0.00,WUHU21623XXSP,2013-09-30 11:10:00,
2013-09-30 04:15:00,63.0,0.0,29.96,WSW,247,0.0,0.0,0,0.00,,,0.00,WUHU21623XXSP,2013-09-30 11:15:00,
2013-09-30 04:20:00,63.0,0.0,29.96,SW,225,0.0,0.0,0,0.00,,,0.00,WUHU21623XXSP,2013-09-30 11:20:00,
2013-09-30 04:25:00,63.0,0.0,29.96,South,180,0.0,0.0,0,0.00,,,0.00,WUHU21623XXSP,2013-09-30 11:25:00,
2013-09-30 04:30:00,63.0,0.0,29.96,South,180,0.0,0.0,0,0.00,,,0.00,WUHU21623XXSP,2013-09-30 11:30:00,
2013-09-30 04:35:00,63.0,0.0,29.96,SE,135,0.0,0.0,0,0.00,,,0.00,WUHU21623XXSP,2013-09-30 11:35:00,
2013-09-30 04:40:00,63.0,0.0,29.96,SSE,157,0.0,0.0,0,0.00,,,0.00,WUHU21623XXSP,2013-09-30 11:40:00,
2013-09-30 04:45:00,62.8,0.0,29.95,SSE,157,0.0,0.7,0,0.00,,,0.00,WUHU21623XXSP,2013-09-30 11:45:00,
2013-09-30 04:50:00,62.8,0.0,29.96,South,180,0.0,0.7,0,0.00,,,0.00,WUHU21623XXSP,2013-09-30 11:50:00,
2013-09-30 04:55:00,62.8,0.0,29.96,South,180,0.0,0.0,0,0.00,,,0.00,WUHU21623XXSP,2013-09-30 11:55:00,
2013-09-30 05:00:00,62.6,0.0,29.96,South,180,0.0,0.0,0,0.00,,,0.00,WUHU21623XXSP,2013-09-30 12:00:00,
2013-09-30 05:05:00,62.8,0.0,29.96,East,90,0.0,0.0,0,0.00,,,0.00,WUHU21623XXSP,2013-09-30 12:05:00,
2013-09-30 05:10:00,62.6,0.0,29.96,SE,135,0.9,0.9,0,0.00,,,0.00,WUHU21623XXSP,2013-09-30 12:10:00,
2013-09-30 05:15:00,62.6,0.0,29.96,SSE,157,0.0,0.9,0,0.00,,,0.00,WUHU21623XXSP,2013-09-30 12:15:00,
2013-09-30 05:20:00,62.4,0.0,29.96,WNW,292,0.0,0.0,0,0.00,,,0.00,WUHU21623XXSP,2013-09-30 12:20:00,
2013-09-30 05:25:00,62.4,0.0,29.96,SSE,157,2.9,2.9,0,0.00,,,0.00,WUHU21623XXSP,2013-09-30 12:25:00,
2013-09-30 05:30:00,62.4,0.0,29.96,South,180,0.0,2.9,0,0.00,,,0.00,WUHU21623XXSP,2013-09-30 12:30:00,
2013-09-30 05:35:00,62.4,0.0,29.96,South,180,0.0,0.0,0,0.00,,,0.00,WUHU21623XXSP,2013-09-30 12:35:00,
2013-09-30 05:40:00,62.4,0.0,29.96,SE,135,0.0,0.0,0,0.00,,,0.00,WUHU21623XXSP,2013-09-30 12:40:00,
2013-09-30 05:45:00,62.4,0.0,29.96,NE,45,0.0,0.0,0,0.00,,,0.00,WUHU21623XXSP,2013-09-30 12:45:00,
2013-09-30 05:50:00,62.4,0.0,29.96,South,180,0.0,0.7,0,0.00,,,0.00,WUHU21623XXSP,2013-09-30 12:50:00,
2013-09-30 05:55:00,62.4,0.0,29.96,South,180,0.9,0.9,0,0.00,,,0.00,WUHU21623XXSP,2013-09-30 12:55:00,
2013-09-30 06:00:00,62.4,0.0,29.95,South,180,0.9,0.9,0,0.00,,,0.00,WUHU21623XXSP,2013-09-30 13:00:00,
2013-09-30 06:05:00,62.4,0.0,29.95,SSE,157,2.2,2.5,0,0.00,,,0.00,WUHU21623XXSP,2013-09-30 13:05:00,
2013-09-30 06:10:00,62.4,0.0,29.96,SSW,202,1.1,2.5,0,0.00,,,0.00,WUHU21623XXSP,2013-09-30 13:10:00,
2013-09-30 06:15:00,62.2,0.0,29.96,NNW,337,0.0,1.1,0,0.00,,,0.00,WUHU21623XXSP,2013-09-30 13:15:00,
2013-09-30 06:20:00,62.2,0.0,29.96,WNW,292,0.0,0.0,0,0.00,,,0.00,WUHU21623XXSP,2013-09-30 13:20:00,
2013-09-30 06:25:00,62.2,0.0,29.96,SSE,157,0.0,0.0,0,0.00,,,0.00,WUHU21623XXSP,2013-09-30 13:25:00,
2013-09-30 06:30:00,62.2,0.0,29.96,ESE,112,0.0,0.0,0,0.00,,,0.00,WUHU21623XXSP,2013-09-30 13:30:00,
2013-09-30 06:35:00,62.2,0.0,29.95,South,180,0.9,1.1,0,0.00,,,0.00,WUHU21623XXSP,2013-09-30 13:35:00,
2013-09-30 06:40:00,62.2,0.0,29.95,SE,135,0.9,1.1,0,0.00,,,0.00,WUHU21623XXSP,2013-09-30 13:40:00,
2013-09-30 06:45:00,62.2,0.0,29.95,South,180,0.0,0.9,0,0.00,,,0.00,WUHU21623XXSP,2013-09-30 13:45:00,
2013-09-30 06:50:00,62.2,0.0,29.95,South,180,0.7,0.7,0,0.00,,,0.00,WUHU21623XXSP,2013-09-30 13:50:00,
2013-09-30 06:55:00,62.2,0.0,29.95,South,180,0.0,0.7,0,0.00,,,0.00,WUHU21623XXSP,2013-09-30 13:55:00,
2013-09-30 07:00:00,62.2,0.0,29.96,WSW,247,1.3,1.3,0,0.00,,,0.00,WUHU21623XXSP,2013-09-30 14:00:00,
2013-09-30 07:05:00,62.1,0.0,29.96,SSE,157,0.0,1.3,0,0.00,,,0.00,WUHU21623XXSP,2013-09-30 14:05:00,
2013-09-30 07:10:00,62.1,0.0,29.96,South,180,0.0,1.3,0,0.00,,,0.00,WUHU21623XXSP,2013-09-30 14:10:00,
2013-09-30 07:15:00,62.1,0.0,29.96,WSW,247,0.0,0.0,0,0.00,,,0.00,WUHU21623XXSP,2013-09-30 14:15:00,
2013-09-30 07:20:00,62.1,0.0,29.96,SSE,157,0.0,0.0,0,0.00,,,0.00,WUHU21623XXSP,2013-09-30 14:20:00,
2013-09-30 07:25:00,62.2,0.0,29.96,SSE,157,1.8,1.8,0,0.00,,,0.00,WUHU21623XXSP,2013-09-30 14:25:00,
2013-09-30 07:30:00,62.2,0.0,29.96,SSW,202,2.0,2.0,0,0.00,,,0.00,WUHU21623XXSP,2013-09-30 14:30:00,
2013-09-30 07:35:00,62.2,0.0,29.97,SSW,202,0.0,2.0,0,0.00,,,0.00,WUHU21623XXSP,2013-09-30 14:35:00,
2013-09-30 07:40:00,62.2,0.0,29.96,SSW,202,0.0,0.7,0,0.00,,,0.00,WUHU21623XXSP,2013-09-30 14:40:00,
2013-09-30 07:45:00,62.2,0.0,29.96,West,270,0.0,0.7,0,0.00,,,0.00,WUHU21623XXSP,2013-09-30 14:45:00,
2013-09-30 07:50:00,62.4,0.0,29.96,SSE,157,2.7,2.7,0,0.00,,,0.00,WUHU21623XXSP,2013-09-30 14:50:00,
2013-09-30 07:55:00,62.4,0.0,29.96,South,180,0.9,2.7,0,0.00,,,0.00,WUHU21623XXSP,2013-09-30 14:55:00,
2013-09-30 08:00:00,62.4,0.0,29.96,WSW,247,0.0,1.3,0,0.00,,,0.00,WUHU21623XXSP,2013-09-30 15:00:00,
2013-09-30 08:05:00,62.4,0.0,29.97,WSW,247,0.0,0.7,0,0.00,,,0.00,WUHU21623XXSP,2013-09-30 15:05:00,
2013-09-30 08:10:00,62.4,0.0,29.97,South,180,2.9,2.9,0,0.00,,,0.00,WUHU21623XXSP,2013-09-30 15:10:00,
2013-09-30 08:15:00,62.4,0.0,29.97,SSE,157,0.0,3.6,0,0.00,,,0.00,WUHU21623XXSP,2013-09-30 15:15:00,
2013-09-30 08:20:00,62.4,0.0,29.97,WNW,292,0.0,3.6,0,0.00,,,0.00,WUHU21623XXSP,2013-09-30 15:20:00,
2013-09-30 08:25:00,62.6,0.0,29.97,SSW,202,0.0,0.0,0,0.00,,,0.00,WUHU21623XXSP,2013-09-30 15:25:00,
2013-09-30 08:30:00,62.8,0.0,29.97,SSE,157,0.0,0.9,0,0.00,,,0.00,WUHU21623XXSP,2013-09-30 15:30:00,
2013-09-30 08:35:00,62.8,0.0,29.97,WSW,247,0.0,3.1,0,0.00,,,0.00,WUHU21623XXSP,2013-09-30 15:35:00,
2013-09-30 08:40:00,63.0,0.0,29.97,SSW,202,0.0,3.1,0,0.00,,,0.00,WUHU21623XXSP,2013-09-30 15:40:00,
2013-09-30 08:45:00,63.1,0.0,29.98,SW,225,0.0,0.0,0,0.00,,,0.00,WUHU21623XXSP,2013-09-30 15:45:00,
2013-09-30 08:50:00,63.1,0.0,29.98,WSW,247,1.3,1.3,0,0.00,,,0.00,WUHU21623XXSP,2013-09-30 15:50:00,
2013-09-30 08:55:00,63.1,0.0,29.98,SW,225,2.9,2.9,0,0.00,,,0.00,WUHU21623XXSP,2013-09-30 15:55:00,
2013-09-30 09:00:00,63.3,0.0,29.98,SW,225,0.7,2.9,0,0.00,,,0.00,WUHU21623XXSP,2013-09-30 16:00:00,
2013-09-30 09:05:00,63.3,0.0,29.98,South,180,3.8,3.8,0,0.00,,,0.00,WUHU21623XXSP,2013-09-30 16:05:00,
2013-09-30 09:10:00,63.5,0.0,29.98,WNW,292,0.0,3.8,0,0.00,,,0.00,WUHU21623XXSP,2013-09-30 16:10:00,
2013-09-30 09:15:00,64.0,0.0,29.98,South,180,0.0,2.0,0,0.00,,,0.00,WUHU21623XXSP,2013-09-30 16:15:00,
2013-09-30 09:20:00,63.9,0.0,29.98,South,180,1.8,1.8,0,0.00,,,0.00,WUHU21623XXSP,2013-09-30 16:20:00,
2013-09-30 09:25:00,64.0,0.0,29.98,South,180,0.0,1.8,0,0.00,,,0.00,WUHU21623XXSP,2013-09-30 16:25:00,
2013-09-30 09:30:00,64.0,0.0,29.98,South,180,2.2,3.1,0,0.00,,,0.00,WUHU21623XXSP,2013-09-30 16:30:00,
2013-09-30 09:35:00,64.0,0.0,29.98,SW,225,0.0,3.1,0,0.00,,,0.00,WUHU21623XXSP,2013-09-30 16:35:00,
2013-09-30 09:40:00,64.0,0.0,29.99,ESE,112,0.0,0.0,0,0.00,,,0.00,WUHU21623XXSP,2013-09-30 16:40:00,
2013-09-30 09:45:00,64.0,0.0,29.99,SSE,157,0.7,2.5,0,0.00,,,0.00,WUHU21623XXSP,2013-09-30 16:45:00,
2013-09-30 09:50:00,64.0,0.0,29.99,NW,315,0.0,2.5,0,0.00,,,0.00,WUHU21623XXSP,2013-09-30 16:50:00,
2013-09-30 09:55:00,64.2,0.0,29.99,SSE,157,0.0,1.8,0,0.00,,,0.00,WUHU21623XXSP,2013-09-30 16:55:00,
2013-09-30 10:00:00,64.2,0.0,29.99,SSW,202,0.0,0.0,0,0.00,,,0.00,WUHU21623XXSP,2013-09-30 17:00:00,
2013-09-30 10:05:00,64.2,0.0,29.99,SSE,157,0.7,1.3,0,0.00,,,0.00,WUHU21623XXSP,2013-09-30 17:05:00,
2013-09-30 10:10:00,64.2,0.0,29.99,SE,135,0.0,1.3,0,0.00,,,0.00,WUHU21623XXSP,2013-09-30 17:10:00,
2013-09-30 10:15:00,64.6,0.0,29.98,SE,135,0.0,2.5,0,0.00,,,0.00,WUHU21623XXSP,2013-09-30 17:15:00,
2013-09-30 10:20:00,64.6,0.0,29.98,South,180,2.7,2.7,0,0.00,,,0.00,WUHU21623XXSP,2013-09-30 17:20:00,
2013-09-30 10:25:00,64.6,0.0,29.99,South,180,0.0,2.7,0,0.00,,,0.00,WUHU21623XXSP,2013-09-30 17:25:00,
2013-09-30 10:30:00,64.6,0.0,29.99,SSE,157,2.9,2.9,0,0.00,,,0.00,WUHU21623XXSP,2013-09-30 17:30:00,
2013-09-30 10:36:00,64.8,0.0,29.99,SSW,202,1.8,2.9,0,0.00,,,0.00,WUHU21623XXSP,2013-09-30 17:36:00,
2013-09-30 10:41:00,64.9,0.0,29.99,ESE,112,0.0,1.8,0,0.00,,,0.00,WUHU21623XXSP,2013-09-30 17:41:00,
2013-09-30 10:46:00,65.1,0.0,29.99,South,180,0.9,1.3,0,0.00,,,0.00,WUHU21623XXSP,2013-09-30 17:46:00,
2013-09-30 10:51:00,65.1,0.0,29.99,SW,225,0.0,2.5,0,0.00,,,0.00,WUHU21623XXSP,2013-09-30 17:51:00,
2013-09-30 10:56:00,65.3,0.0,29.99,SSW,202,0.0,2.5,0,0.00,,,0.00,WUHU21623XXSP,2013-09-30 17:56:00,
2013-09-30 11:01:00,65.3,0.0,29.99,SSE,157,0.0,0.0,0,0.00,,,0.00,WUHU21623XXSP,2013-09-30 18:01:00,
2013-09-30 11:06:00,65.5,0.0,29.98,SSW,202,1.1,1.1,0,0.00,,,0.00,WUHU21623XXSP,2013-09-30 18:06:00,
2013-09-30 11:11:00,65.7,0.0,29.98,SSW,202,0.0,1.1,0,0.00,,,0.00,WUHU21623XXSP,2013-09-30 18:11:00,
2013-09-30 11:16:00,65.7,0.0,29.99,South,180,4.7,4.7,0,0.00,,,0.00,WUHU21623XXSP,2013-09-30 18:16:00,
2013-09-30 11:21:00,66.0,0.0,29.99,South,180,2.9,5.4,0,0.00,,,0.00,WUHU21623XXSP,2013-09-30 18:21:00,
2013-09-30 11:26:00,66.0,0.0,29.99,NW,315,0.0,5.4,0,0.00,,,0.00,WUHU21623XXSP,2013-09-30 18:26:00,
2013-09-30 11:31:00,66.0,0.0,29.99,SSW,202,2.0,3.6,0,0.00,,,0.00,WUHU21623XXSP,2013-09-30 18:31:00,
2013-09-30 11:36:00,66.0,0.0,29.99,West,270,0.0,3.6,0,0.00,,,0.00,WUHU21623XXSP,2013-09-30 18:36:00,
2013-09-30 11:41:00,66.2,0.0,29.99,WSW,247,1.6,3.6,0,0.00,,,0.00,WUHU21623XXSP,2013-09-30 18:41:00,
2013-09-30 11:46:00,66.4,0.0,29.98,SSW,202,5.1,5.4,0,0.00,,,0.00,WUHU21623XXSP,2013-09-30 18:46:00,
2013-09-30 11:51:00,66.4,0.0,29.98,WNW,292,0.0,5.4,0,0.00,,,0.00,WUHU21623XXSP,2013-09-30 18:51:00,
2013-09-30 11:56:00,66.4,0.0,29.98,WNW,292,0.0,5.1,0,0.00,,,0.00,WUHU21623XXSP,2013-09-30 18:56:00,
2013-09-30 12:01:00,66.4,0.0,29.99,ESE,112,1.6,1.6,0,0.00,,,0.00,WUHU21623XXSP,2013-09-30 19:01:00,
2013-09-30 12:06:00,66.4,0.0,29.99,NW,315,0.0,1.6,0,0.00,,,0.00,WUHU21623XXSP,2013-09-30 19:06:00,
2013-09-30 12:11:00,66.4,0.0,29.98,WSW,247,2.0,2.0,0,0.00,,,0.00,WUHU21623XXSP,2013-09-30 19:11:00,
2013-09-30 12:16:00,66.7,0.0,29.98,WNW,292,0.0,2.0,0,0.00,,,0.00,WUHU21623XXSP,2013-09-30 19:16:00,
2013-09-30 12:21:00,66.9,0.0,29.98,South,180,1.1,2.0,0,0.00,,,0.00,WUHU21623XXSP,2013-09-30 19:21:00,
2013-09-30 12:26:00,67.1,0.0,29.98,SW,225,0.0,1.1,0,0.00,,,0.00,WUHU21623XXSP,2013-09-30 19:26:00,
2013-09-30 12:31:00,67.3,0.0,29.98,WSW,247,0.0,2.9,0,0.00,,,0.00,WUHU21623XXSP,2013-09-30 19:31:00,
2013-09-30 12:36:00,67.5,0.0,29.98,SSE,157,0.7,2.9,0,0.00,,,0.00,WUHU21623XXSP,2013-09-30 19:36:00,
2013-09-30 12:41:00,67.6,0.0,29.97,SW,225,2.2,2.2,0,0.00,,,0.00,WUHU21623XXSP,2013-09-30 19:41:00,
2013-09-30 12:46:00,67.6,0.0,29.97,SE,135,3.6,4.0,0,0.00,,,0.00,WUHU21623XXSP,2013-09-30 19:46:00,
2013-09-30 12:51:00,67.8,0.0,29.97,SE,135,0.0,4.0,0,0.00,,,0.00,WUHU21623XXSP,2013-09-30 19:51:00,
2013-09-30 12:56:00,67.8,0.0,29.97,North,0,3.4,3.4,0,0.00,,,0.00,WUHU21623XXSP,2013-09-30 19:56:00,
2013-09-30 13:01:00,67.8,0.0,29.97,South,180,6.3,6.3,0,0.00,,,0.00,WUHU21623XXSP,2013-09-30 20:01:00,
2013-09-30 13:06:00,67.8,0.0,29.97,WSW,247,5.1,6.3,0,0.00,,,0.00,WUHU21623XXSP,2013-09-30 20:06:00,
2013-09-30 13:11:00,67.8,0.0,29.97,SE,135,4.5,5.1,0,0.00,,,0.00,WUHU21623XXSP,2013-09-30 20:11:00,
2013-09-30 13:16:00,68.2,0.0,29.96,WSW,247,0.0,4.5,0,0.00,,,0.00,WUHU21623XXSP,2013-09-30 20:16:00,
2013-09-30 13:21:00,68.2,0.0,29.97,WNW,292,0.9,2.5,0,0.00,,,0.00,WUHU21623XXSP,2013-09-30 20:21:00,
2013-09-30 13:26:00,68.2,0.0,29.97,SW,225,0.9,3.6,0,0.00,,,0.00,WUHU21623XXSP,2013-09-30 20:26:00,
2013-09-30 13:31:00,68.4,0.0,29.96,West,270,1.3,3.8,0,0.00,,,0.00,WUHU21623XXSP,2013-09-30 20:31:00,
2013-09-30 13:36:00,68.5,0.0,29.96,WSW,247,3.8,3.8,0,0.00,,,0.00,WUHU21623XXSP,2013-09-30 20:36:00,
2013-09-30 13:41:00,68.7,0.0,29.95,WNW,292,0.9,7.8,0,0.00,,,0.00,WUHU21623XXSP,2013-09-30 20:41:00,
2013-09-30 13:46:00,68.9,0.0,29.96,WSW,247,0.0,7.8,0,0.00,,,0.00,WUHU21623XXSP,2013-09-30 20:46:00,
2013-09-30 13:51:00,69.1,0.0,29.96,WNW,292,0.0,2.5,0,0.00,,,0.00,WUHU21623XXSP,2013-09-30 20:51:00,
2013-09-30 13:56:00,69.4,0.0,29.96,South,180,0.0,0.0,0,0.00,,,0.00,WUHU21623XXSP,2013-09-30 20:56:00,
2013-09-30 14:01:00,69.6,0.0,29.95,WSW,247,4.3,4.3,0,0.00,,,0.00,WUHU21623XXSP,2013-09-30 21:01:00,
2013-09-30 14:06:00,70.0,0.0,29.95,WSW,247,1.6,4.3,0,0.00,,,0.00,WUHU21623XXSP,2013-09-30 21:06:00,
2013-09-30 14:11:00,70.3,0.0,29.95,North,0,0.0,1.8,0,0.00,,,0.00,WUHU21623XXSP,2013-09-30 21:11:00,
2013-09-30 14:16:00,70.7,0.0,29.94,SW,225,3.8,3.8,0,0.00,,,0.00,WUHU21623XXSP,2013-09-30 21:16:00,
2013-09-30 14:21:00,71.1,0.0,29.94,West,270,0.0,3.8,0,0.00,,,0.00,WUHU21623XXSP,2013-09-30 21:21:00,
2013-09-30 14:26:00,71.4,0.0,29.94,West,270,1.8,1.8,0,0.00,,,0.00,WUHU21623XXSP,2013-09-30 21:26:00,
2013-09-30 14:31:00,71.8,0.0,29.93,South,180,4.3,5.1,0,0.00,,,0.00,WUHU21623XXSP,2013-09-30 21:31:00,
2013-09-30 14:36:00,72.0,0.0,29.94,SSE,157,0.0,5.1,0,0.00,,,0.00,WUHU21623XXSP,2013-09-30 21:36:00,
2013-09-30 14:41:00,72.5,0.0,29.94,South,180,3.1,5.1,0,0.00,,,0.00,WUHU21623XXSP,2013-09-30 21:41:00,
2013-09-30 14:46:00,72.9,0.0,29.93,SSW,202,2.2,4.3,0,0.00,,,0.00,WUHU21623XXSP,2013-09-30 21:46:00,
2013-09-30 14:51:00,73.2,0.0,29.93,SSE,157,0.9,2.2,0,0.00,,,0.00,WUHU21623XXSP,2013-09-30 21:51:00,
2013-09-30 14:56:00,73.6,0.0,29.93,SSE,157,0.0,1.1,0,0.00,,,0.00,WUHU21623XXSP,2013-09-30 21:56:00,
2013-09-30 15:01:00,73.8,0.0,29.93,West,270,0.0,1.6,0,0.00,,,0.00,WUHU21623XXSP,2013-09-30 22:01:00,
2013-09-30 15:06:00,73.9,0.0,29.93,SW,225,0.9,1.6,0,0.00,,,0.00,WUHU21623XXSP,2013-09-30 22:06:00,
2013-09-30 15:11:00,73.8,0.0,29.93,WNW,292,6.7,6.7,0,0.00,,,0.00,WUHU21623XXSP,2013-09-30 22:11:00,
2013-09-30 15:16:00,73.4,0.0,29.93,WNW,292,7.6,7.6,0,0.00,,,0.00,WUHU21623XXSP,2013-09-30 22:16:00,
2013-09-30 15:21:00,73.0,0.0,29.93,NW,315,1.8,7.6,0,0.00,,,0.00,WUHU21623XXSP,2013-09-30 22:21:00,
2013-09-30 15:26:00,72.3,0.0,29.93,WNW,292,2.2,6.0,0,0.00,,,0.00,WUHU21623XXSP,2013-09-30 22:26:00,
2013-09-30 15:31:00,72.1,0.0,29.94,NW,315,0.9,6.0,0,0.00,,,0.00,WUHU21623XXSP,2013-09-30 22:31:00,
2013-09-30 15:36:00,72.1,0.0,29.93,WNW,292,4.5,4.5,0,0.00,,,0.00,WUHU21623XXSP,2013-09-30 22:36:00,
2013-09-30 15:41:00,71.4,0.0,29.93,WNW,292,2.9,4.5,0,0.00,,,0.00,WUHU21623XXSP,2013-09-30 22:41:00,
2013-09-30 15:46:00,71.4,0.0,29.93,WNW,292,2.9,4.5,0,0.00,,,0.00,WUHU21623XXSP,2013-09-30 22:46:00,
2013-09-30 15:51:00,71.2,0.0,29.93,West,270,1.1,2.9,0,0.00,,,0.00,WUHU21623XXSP,2013-09-30 22:51:00,
2013-09-30 15:56:00,71.2,0.0,29.93,NW,315,3.6,3.6,0,0.00,,,0.00,WUHU21623XXSP,2013-09-30 22:56:00,
2013-09-30 16:01:00,71.2,0.0,29.93,WNW,292,1.1,4.5,0,0.00,,,0.00,WUHU21623XXSP,2013-09-30 23:01:00,
2013-09-30 16:06:00,71.2,0.0,29.93,West,270,0.9,4.5,0,0.00,,,0.00,WUHU21623XXSP,2013-09-30 23:06:00,
2013-09-30 16:11:00,71.2,0.0,29.92,WNW,292,1.6,2.5,0,0.00,,,0.00,WUHU21623XXSP,2013-09-30 23:11:00,
2013-09-30 16:16:00,71.4,0.0,29.92,South,180,1.3,1.6,0,0.00,,,0.00,WUHU21623XXSP,2013-09-30 23:16:00,
2013-09-30 16:21:00,71.4,0.0,29.92,South,180,3.1,3.8,0,0.00,,,0.00,WUHU21623XXSP,2013-09-30 23:21:00,
2013-09-30 16:26:00,71.8,0.0,29.92,SSW,202,0.9,3.8,0,0.00,,,0.00,WUHU21623XXSP,2013-09-30 23:26:00,
2013-09-30 16:31:00,72.1,0.0,29.91,SE,135,0.7,3.1,0,0.00,,,0.00,WUHU21623XXSP,2013-09-30 23:31:00,
2013-09-30 16:36:00,72.3,0.0,29.91,East,90,0.0,0.7,0,0.00,,,0.00,WUHU21623XXSP,2013-09-30 23:36:00,
2013-09-30 16:41:00,72.7,0.0,29.91,SW,225,4.9,4.9,0,0.00,,,0.00,WUHU21623XXSP,2013-09-30 23:41:00,
2013-09-30 16:46:00,72.7,0.0,29.91,West,270,0.0,4.9,0,0.00,,,0.00,WUHU21623XXSP,2013-09-30 23:46:00,
2013-09-30 16:51:00,72.7,0.0,29.91,SW,225,2.7,2.7,0,0.00,,,0.00,WUHU21623XXSP,2013-09-30 23:51:00,
2013-09-30 16:56:00,72.5,0.0,29.91,SE,135,0.0,2.7,0,0.00,,,0.00,WUHU21623XXSP,2013-09-30 23:56:00,
2013-09-30 17:01:00,72.5,0.0,29.91,WSW,247,0.0,1.8,0,0.00,,,0.00,WUHU21623XXSP,2013-10-01 00:01:00,
2013-09-30 17:06:00,72.5,0.0,29.91,WSW,247,0.0,0.9,0,0.00,,,0.00,WUHU21623XXSP,2013-10-01 00:06:00,
2013-09-30 17:11:00,72.7,0.0,29.91,SSW,202,0.0,0.0,0,0.00,,,0.00,WUHU21623XXSP,2013-10-01 00:11:00,
2013-09-30 17:16:00,73.0,0.0,29.91,SSW,202,0.7,1.1,0,0.00,,,0.00,WUHU21623XXSP,2013-10-01 00:16:00,
2013-09-30 17:21:00,73.4,0.0,29.90,SSW,202,2.5,2.5,0,0.00,,,0.00,WUHU21623XXSP,2013-10-01 00:21:00,
2013-09-30 17:26:00,73.6,0.0,29.91,SE,135,2.0,2.5,0,0.00,,,0.00,WUHU21623XXSP,2013-10-01 00:26:00,
2013-09-30 17:31:00,73.8,0.0,29.91,SSE,157,0.0,2.0,0,0.00,,,0.00,WUHU21623XXSP,2013-10-01 00:31:00,
2013-09-30 17:36:00,73.9,0.0,29.91,WSW,247,2.9,2.9,0,0.00,,,0.00,WUHU21623XXSP,2013-10-01 00:36:00,
2013-09-30 17:41:00,74.1,0.0,29.91,SW,225,0.7,2.9,0,0.00,,,0.00,WUHU21623XXSP,2013-10-01 00:41:00,
2013-09-30 17:46:00,74.1,0.0,29.91,West,270,1.3,1.8,0,0.00,,,0.00,WUHU21623XXSP,2013-10-01 00:46:00,
2013-09-30 17:51:00,73.9,0.0,29.91,West,270,0.0,2.9,0,0.00,,,0.00,WUHU21623XXSP,2013-10-01 00:51:00,
2013-09-30 17:56:00,73.6,0.0,29.91,South,180,2.0,2.9,0,0.00,,,0.00,WUHU21623XXSP,2013-10-01 00:56:00,
2013-09-30 18:01:00,73.2,0.0,29.90,West,270,0.0,2.2,0,0.00,,,0.00,WUHU21623XXSP,2013-10-01 01:01:00,
2013-09-30 18:06:00,73.2,0.0,29.90,South,180,4.0,4.0,0,0.00,,,0.00,WUHU21623XXSP,2013-10-01 01:06:00,
2013-09-30 18:11:00,72.7,0.0,29.90,South,180,1.1,4.0,0,0.00,,,0.00,WUHU21623XXSP,2013-10-01 01:11:00,
2013-09-30 18:16:00,72.3,0.0,29.90,South,180,1.8,2.5,0,0.00,,,0.00,WUHU21623XXSP,2013-10-01 01:16:00,
2013-09-30 18:21:00,72.3,0.0,29.90,WNW,292,0.0,1.8,0,0.00,,,0.00,WUHU21623XXSP,2013-10-01 01:21:00,
2013-09-30 18:26:00,71.8,0.0,29.91,SW,225,0.0,1.8,0,0.00,,,0.00,WUHU21623XXSP,2013-10-01 01:26:00,
2013-09-30 18:31:00,71.8,0.0,29.90,SSW,202,0.0,0.9,0,0.00,,,0.00,WUHU21623XXSP,2013-10-01 01:31:00,
2013-09-30 18:36:00,71.4,0.0,29.90,SSE,157,0.0,1.8,0,0.00,,,0.00,WUHU21623XXSP,2013-10-01 01:36:00,
2013-09-30 18:41:00,70.9,0.0,29.90,SW,225,2.5,2.5,0,0.00,,,0.00,WUHU21623XXSP,2013-10-01 01:41:00,
2013-09-30 18:46:00,70.7,0.0,29.90,North,0,0.0,2.5,0,0.00,,,0.00,WUHU21623XXSP,2013-10-01 01:46:00,
2013-09-30 18:51:00,70.3,0.0,29.91,South,180,3.4,3.4,0,0.00,,,0.00,WUHU21623XXSP,2013-10-01 01:51:00,
2013-09-30 18:56:00,70.0,0.0,29.90,ENE,67,0.0,3.6,0,0.00,,,0.00,WUHU21623XXSP,2013-10-01 01:56:00,
2013-09-30 19:01:00,69.6,0.0,29.90,ESE,112,0.0,3.6,0,0.00,,,0.00,WUHU21623XXSP,2013-10-01 02:01:00,
2013-09-30 19:06:00,69.1,0.0,29.90,ENE,67,0.0,0.0,0,0.00,,,0.00,WUHU21623XXSP,2013-10-01 02:06:00,
2013-09-30 19:11:00,68.7,0.0,29.90,SSW,202,0.0,1.3,0,0.00,,,0.00,WUHU21623XXSP,2013-10-01 02:11:00,
2013-09-30 19:16:00,68.4,0.0,29.90,SW,225,0.0,1.3,0,0.00,,,0.00,WUHU21623XXSP,2013-10-01 02:16:00,
2013-09-30 19:21:00,67.8,0.0,29.90,SSE,157,0.0,1.1,0,0.00,,,0.00,WUHU21623XXSP,2013-10-01 02:21:00,
2013-09-30 19:26:00,67.6,0.0,29.90,East,90,0.0,0.0,0,0.00,,,0.00,WUHU21623XXSP,2013-10-01 02:26:00,
2013-09-30 19:31:00,67.3,0.0,29.90,SSE,157,0.0,0.7,0,0.00,,,0.00,WUHU21623XXSP,2013-10-01 02:31:00,
2013-09-30 19:36:00,66.9,0.0,29.91,South,180,0.0,0.7,0,0.00,,,0.00,WUHU21623XXSP,2013-10-01 02:36:00,
2013-09-30 19:41:00,66.7,0.0,29.90,East,90,0.0,0.0,0,0.00,,,0.00,WUHU21623XXSP,2013-10-01 02:41:00,
2013-09-30 19:46:00,66.4,0.0,29.90,East,90,0.0,0.0,0,0.00,,,0.00,WUHU21623XXSP,2013-10-01 02:46:00,
2013-09-30 19:51:00,66.0,0.0,29.91,ENE,67,0.0,0.0,0,0.00,,,0.00,WUHU21623XXSP,2013-10-01 02:51:00,
2013-09-30 19:56:00,65.8,0.0,29.91,East,90,0.0,0.0,0,0.00,,,0.00,WUHU21623XXSP,2013-10-01 02:56:00,
2013-09-30 20:01:00,65.5,0.0,29.91,ENE,67,0.0,0.0,0,0.00,,,0.00,WUHU21623XXSP,2013-10-01 03:01:00,
2013-09-30 20:06:00,65.1,0.0,29.91,NE,45,0.0,0.0,0,0.00,,,0.00,WUHU21623XXSP,2013-10-01 03:06:00,
2013-09-30 20:11:00,64.9,0.0,29.91,ENE,67,0.0,0.0,0,0.00,,,0.00,WUHU21623XXSP,2013-10-01 03:11:00,
2013-09-30 20:16:00,64.6,0.0,29.91,ENE,67,0.0,0.0,0,0.00,,,0.00,WUHU21623XXSP,2013-10-01 03:16:00,
2013-09-30 20:22:00,64.2,0.0,29.91,ENE,67,0.0,0.0,0,0.00,,,0.00,WUHU21623XXSP,2013-10-01 03:22:00,
2013-09-30 20:27:00,64.2,0.0,29.91,East,90,0.0,0.0,0,0.00,,,0.00,WUHU21623XXSP,2013-10-01 03:27:00,
2013-09-30 20:32:00,63.9,0.0,29.91,NNE,22,0.0,0.0,0,0.00,,,0.00,WUHU21623XXSP,2013-10-01 03:32:00,
2013-09-30 20:37:00,63.5,0.0,29.91,ENE,67,0.0,0.0,0,0.00,,,0.00,WUHU21623XXSP,2013-10-01 03:37:00,
2013-09-30 20:42:00,63.3,0.0,29.91,ENE,67,0.0,0.0,0,0.00,,,0.00,WUHU21623XXSP,2013-10-01 03:42:00,
2013-09-30 20:47:00,63.1,0.0,29.91,NE,45,0.0,0.0,0,0.00,,,0.00,WUHU21623XXSP,2013-10-01 03:47:00,
2013-09-30 20:52:00,63.0,0.0,29.91,ENE,67,0.0,0.0,0,0.00,,,0.00,WUHU21623XXSP,2013-10-01 03:52:00,
2013-09-30 20:57:00,62.8,0.0,29.91,ENE,67,0.0,0.0,0,0.00,,,0.00,WUHU21623XXSP,2013-10-01 03:57:00,
2013-09-30 21:02:00,62.6,0.0,29.91,East,90,0.0,0.0,0,0.00,,,0.00,WUHU21623XXSP,2013-10-01 04:02:00,
2013-09-30 21:07:00,62.4,0.0,29.91,ENE,67,0.0,0.0,0,0.00,,,0.00,WUHU21623XXSP,2013-10-01 04:07:00,
2013-09-30 21:12:00,62.2,0.0,29.91,ENE,67,0.0,0.0,0,0.00,,,0.00,WUHU21623XXSP,2013-10-01 04:12:00,
2013-09-30 21:17:00,62.1,0.0,29.91,East,90,0.0,0.0,0,0.00,,,0.00,WUHU21623XXSP,2013-10-01 04:17:00,
2013-09-30 21:22:00,61.9,0.0,29.91,ENE,67,0.0,0.0,0,0.00,,,0.00,WUHU21623XXSP,2013-10-01 04:22:00,
2013-09-30 21:27:00,61.7,0.0,29.92,ENE,67,0.0,0.0,0,0.00,,,0.00,WUHU21623XXSP,2013-10-01 04:27:00,
2013-09-30 21:32:00,61.5,0.0,29.92,ENE,67,0.0,0.0,0,0.00,,,0.00,WUHU21623XXSP,2013-10-01 04:32:00,
2013-09-30 21:37:00,61.2,0.0,29.91,ENE,67,0.0,0.0,0,0.00,,,0.00,WUHU21623XXSP,2013-10-01 04:37:00,
2013-09-30 21:42:00,61.0,0.0,29.91,ENE,67,0.0,0.0,0,0.00,,,0.00,WUHU21623XXSP,2013-10-01 04:42:00,
2013-09-30 21:47:00,61.0,0.0,29.91,ENE,67,0.0,0.0,0,0.00,,,0.00,WUHU21623XXSP,2013-10-01 04:47:00,
2013-09-30 21:52:00,60.6,0.0,29.91,ENE,67,0.0,0.0,0,0.00,,,0.00,WUHU21623XXSP,2013-10-01 04:52:00,
2013-09-30 21:57:00,60.6,0.0,29.92,North,0,0.0,0.0,0,0.00,,,0.00,WUHU21623XXSP,2013-10-01 04:57:00,
2013-09-30 22:02:00,60.4,0.0,29.92,North,0,0.0,0.0,0,0.00,,,0.00,WUHU21623XXSP,2013-10-01 05:02:00,
2013-09-30 22:07:00,60.1,0.0,29.93,NNE,22,0.0,0.0,0,0.00,,,0.00,WUHU21623XXSP,2013-10-01 05:07:00,
2013-09-30 22:12:00,59.9,0.0,29.92,NNE,22,0.0,0.0,0,0.00,,,0.00,WUHU21623XXSP,2013-10-01 05:12:00,
2013-09-30 22:17:00,59.7,0.0,29.93,NW,315,0.0,0.0,0,0.00,,,0.00,WUHU21623XXSP,2013-10-01 05:17:00,
2013-09-30 22:22:00,59.5,0.0,29.93,SE,135,0.0,0.0,0,0.00,,,0.00,WUHU21623XXSP,2013-10-01 05:22:00,
2013-09-30 22:27:00,59.5,0.0,29.92,ENE,67,0.0,0.0,0,0.00,,,0.00,WUHU21623XXSP,2013-10-01 05:27:00,
2013-09-30 22:32:00,59.2,0.0,29.92,North,0,0.0,0.0,0,0.00,,,0.00,WUHU21623XXSP,2013-10-01 05:32:00,
2013-09-30 22:37:00,59.2,0.0,29.92,NNE,22,0.0,0.0,0,0.00,,,0.00,WUHU21623XXSP,2013-10-01 05:37:00,
2013-09-30 22:42:00,59.0,0.0,29.92,NW,315,0.0,0.0,0,0.00,,,0.00,WUHU21623XXSP,2013-10-01 05:42:00,
2013-09-30 22:47:00,58.8,0.0,29.92,NNE,22,0.0,1.8,0,0.00,,,0.00,WUHU21623XXSP,2013-10-01 05:47:00,
2013-09-30 22:52:00,58.6,0.0,29.93,NW,315,0.0,1.8,0,0.00,,,0.00,WUHU21623XXSP,2013-10-01 05:52:00,
2013-09-30 22:57:00,58.6,0.0,29.92,NW,315,0.0,0.0,0,0.00,,,0.00,WUHU21623XXSP,2013-10-01 05:57:00,
2013-09-30 23:02:00,58.3,0.0,29.92,NW,315,1.3,2.0,0,0.00,,,0.00,WUHU21623XXSP,2013-10-01 06:02:00,
2013-09-30 23:07:00,58.3,0.0,29.92,NW,315,0.0,2.0,0,0.00,,,0.00,WUHU21623XXSP,2013-10-01 06:07:00,
2013-09-30 23:12:00,58.1,0.0,29.92,West,270,1.1,1.1,0,0.00,,,0.00,WUHU21623XXSP,2013-10-01 06:12:00,
2013-09-30 23:17:00,57.9,0.0,29.92,WNW,292,0.0,1.1,0,0.00,,,0.00,WUHU21623XXSP,2013-10-01 06:17:00,
2013-09-30 23:22:00,57.9,0.0,29.92,NW,315,1.1,1.1,0,0.00,,,0.00,WUHU21623XXSP,2013-10-01 06:22:00,
2013-09-30 23:27:00,57.9,0.0,29.92,NW,315,1.1,1.1,0,0.00,,,0.00,WUHU21623XXSP,2013-10-01 06:27:00,
2013-09-30 23:32:00,57.7,0.0,29.92,NNW,337,0.0,1.1,0,0.00,,,0.00,WUHU21623XXSP,2013-10-01 06:32:00,
2013-09-30 23:37:00,57.6,0.0,29.91,NNW,337,0.0,0.0,0,0.00,,,0.00,WUHU21623XXSP,2013-10-01 06:37:00,
2013-09-30 23:42:00,57.4,0.0,29.91,NW,315,0.0,0.0,0,0.00,,,0.00,WUHU21623XXSP,2013-10-01 06:42:00,
2013-09-30 23:47:00,57.2,0.0,29.91,NNE,22,0.0,0.0,0,0.00,,,0.00,WUHU21623XXSP,2013-10-01 06:47:00,
2013-09-30 23:52:00,57.0,0.0,29.91,NNE,22,0.0,0.0,0,0.00,,,0.00,WUHU21623XXSP,2013-10-01 06:52:00,
2013-09-30 23:57:00,57.0,0.0,29.91,NNE,22,0.0,0.0,0,0.00,,,0.00,WUHU21623XXSP,2013-10-01 06:57:00,